Regional Weather Roundup
Issued by NWS Cleveland, OH

Home | Current Version | Previous Version | Text Only | Print | Product List | Glossary Off
Versions: 1 2 3 4 5 6 7 8 9 10 11 12 13 14 15 16 17 18 19 20 21 22 23 24 25 26 27 28 29 30 31 32 33 34 35 36 37 38 39 40 41 42 43 44 45 46 47 48 49 50

000
ASUS41 KCLE 060410
RWRCLE
OHIO REGIONAL WEATHER ROUNDUP
NATIONAL WEATHER SERVICE WILMINGTON, OH
1100 PM EST THU MAR 05 2015

NOTE: "FAIR" INDICATES FEW OR NO CLOUDS BELOW 12,000 FEET WITH NO
SIGNIFICANT WEATHER AND/OR OBSTRUCTIONS TO VISIBILITY.

OHZ001>008-015>018-024>027-034-035-043-044-060500-
   NORTHWEST OHIO

CITY           SKY/WX    TMP DP  RH WIND       PRES   REMARKS
DEFIANCE       PTCLDY     7   0  73 SW5       30.54R WCI  -2
FINDLAY        CLEAR      7   1  76 SW3       30.51S
TOLEDO EXPRESS PTCLDY     4  -1  80 CALM      30.52R
TOLEDO EXEC    PTCLDY     9   0  67 CALM      30.53R
LIMA           CLEAR     10   3  73 SW3       30.51R
$$

OHZ009>014-019>023-028>033-038-089-060500-
   NORTHEAST OHIO

CITY           SKY/WX    TMP DP  RH WIND       PRES   REMARKS
CLE-HOPKINS    CLEAR      8  -1  66 S5        30.54R WCI   0
CLE-LAKEFRONT  CLEAR     12   2  64 S6        30.52R WCI   3
CUY CO. ARPT   CLEAR      3   0  85 S6        30.51R WCI  -8
LORAIN-ELYRIA  CLEAR      5  -1  76 SW6       30.51S WCI  -6
ASHTABULA      CLEAR     -4 -10  75 CALM      30.50S
AKRON-CANTON   PTCLDY     5  -4  66 SW5       30.48R WCI  -4
WOOSTER        CLEAR     -2  -6  83 CALM      30.49R
MANSFIELD      CLEAR      7   4  87 S5        30.47S WCI  -2
YOUNGSTOWN     CLEAR      1  -4  79 CALM      30.47R
$$

OHZ042-051>053-060>062-070>072-077>081-060500-
  SOUTHWEST OHIO

CITY           SKY/WX    TMP DP  RH WIND       PRES   REMARKS
CINC-COVINGTON PTCLDY    13   3  64 N3        30.54R
CINC-LUNKEN    PTCLDY    10   6  84 CALM      30.59R
HAMILTON       CLEAR      7   2  80 CALM      30.57R
DAYTON         PTCLDY    11   4  73 W3        30.53R
WRIGHT-PAT AFB PTCLDY    10   6  84 CALM      30.53S
DAYTON GENERAL CLEAR     11   3  70 CALM      30.52R
WILMINGTON     PTCLDY     4  -1  80 CALM      30.51S
$$

OHZ036-037-039>041-045>050-054>059-063>069-073>076-082>088-060500-
  CENTRAL AND SOUTHEAST OHIO

CITY           SKY/WX    TMP DP  RH WIND       PRES   REMARKS
COLUMBUS       CLEAR     12   4  70 CALM      30.53R
OSU AIRPORT    CLEAR     11   4  73 CALM      30.52S
BOLTON FIELD   CLEAR    N/A N/A N/A CALM      30.53S
RICKENBACK AFB CLEAR      9   2  75 CALM      30.54R
NEWARK         CLEAR      5   1  83 CALM      30.52R
MARION         CLEAR      5  -1  76 S3        30.51S
LANCASTER      CLEAR      0  -6  76 CALM      30.54R
ZANESVILLE     CLEAR      9   2  73 CALM      30.52R
NEW PHILLY     CLEAR      8   0  69 CALM      30.53R
$$



USA.gov is the U.S. government's official web portal to all federal, state and local government web resources and services.